Home > Weather > Farmington > Past weeks

Flag for U.S.A. Weather for the Past 2 Weeks in Farmington, New Mexico, U.S.A.

Now
46 °F

Sunny.


Feels Like: 43 °F
Forecast: 19 / 42 °F
Wind: 6 mph from Northwest

Location: Four Corners Regional Airport

Current Time: Feb 7, 2016 at 5:58:59 PM

Latest Report: Feb 7, 2016 at 4:53 PM


Visibility: 10 mi

Pressure: 30.42 "Hg (24.99 "Hg at 1617m altitude)

Humidity: 38%

Dew point: 22 °F

Location of FarmingtonLocation

Historic Weather in Farmington — Graph

°F

Farmington Temperature Yesterday

Maximum temperature yesterday: 40 °F (at 3:53 PM)
Minimum temperature yesterday: 11 °F (at 5:53 AM)
Average temperature yesterday: 24 °F

High & Low Weather Summary for the Past Weeks

 TemperatureHumidityPressure
High62 °F (Jan 28, 3:53 PM)96% (Jan 24, 3:53 PM)30.67 "Hg (Jan 24, 3:53 PM)
Low4 °F (Feb 4, 5:53 AM)20% (Jan 28, 3:53 PM)29.36 "Hg (Feb 1, 3:53 AM)
Average30 °F63%30.18 "Hg
* Reported Jan 23 3:53 PM — Feb 7 3:53 PM, Farmington, Weather by CustomWeather, © 2016

Note: Actual official high and low records may vary slightly from our data, if they occured in-between our weather recording intervals... More about our weather records

Advertising

Farmington Weather History for the Previous 24 Hours

 ConditionsComfort  
Time TempWeatherWind HumidityBarometerVisibility
3:53 PM
Sun, Feb 7
47 °FSunny.5 mph37%30.41 "Hg10 mi
2:53 PM44 °FSunny.5 mph38%30.41 "Hg10 mi
1:53 PM41 °FSunny.No wind43%30.44 "Hg10 mi
12:53 PM37 °FSunny.No wind48%30.48 "Hg10 mi
11:53 AM34 °FSunny.6 mph52%30.51 "Hg10 mi
10:53 AM29 °FSunny.No wind64%30.55 "Hg10 mi
9:53 AM26 °FSunny.3 mph71%30.56 "Hg10 mi
8:53 AM22 °FSunny.5 mph78%30.55 "Hg10 mi
7:53 AM17 °FSunny.5 mph80%30.54 "Hg10 mi
6:53 AM17 °FClear.5 mph80%30.52 "Hg10 mi
5:53 AM14 °FClear.5 mph87%30.53 "Hg10 mi
4:53 AM16 °FClear.No wind80%30.48 "Hg10 mi
3:53 AM16 °FClear.6 mph84%30.48 "Hg10 mi
2:53 AM18 °FClear.5 mph84%30.49 "Hg10 mi
1:53 AM18 °FClear.6 mph84%30.51 "Hg10 mi
12:53 AM19 °FClear.6 mph85%30.53 "Hg10 mi
11:53 PM
Sat, Feb 6
21 °FClear.5 mph81%30.53 "Hg10 mi
10:53 PM22 °FClear.5 mph78%30.53 "Hg10 mi
9:53 PM23 °FClear.5 mph78%30.54 "Hg10 mi
8:53 PM27 °FClear.No wind69%30.52 "Hg10 mi
7:53 PM29 °FClear.5 mph64%30.53 "Hg10 mi
6:53 PM32 °FClear.7 mph54%30.52 "Hg10 mi
5:53 PM35 °FClear.6 mph46%30.50 "Hg10 mi
Weather by CustomWeather, © 2016

See weather overviewHow to use our weather pages